Home   Weather   Astrakhan   Past weeks
Flag for Russia

Past Weather in Astrakhan, Russia — Yesterday and Last 2 Weeks

Now
84 °F

Clear.


Feels Like: 83 °F
Forecast: 89 / 73 °F
Wind: 6 mph from North

Location: Astrakhan

Current Time: Jul 19, 2019 at 11:27:45 pm

Latest Report: Jul 19, 2019 at 10:30 pm


Visibility: 10 mi

Pressure: 29.89 "Hg

Humidity: 35%

Dew Point: 54 °F

Location of AstrakhanLocation

Past Weather in Astrakhan — Graph

°F

Astrakhan Temperature Yesterday

Maximum temperature yesterday: 93 °F (at 3:30 pm)
Minimum temperature yesterday: 72 °F (at 3:00 am)
Average temperature yesterday: 82 °F

High & Low Weather Summary for the Past Weeks

 TemperatureHumidityPressure
High95 °F (Jul 12, 12:30 pm)88% (Jul 15, 1:30 am)29.89 "Hg (Jul 15, 1:30 am)
Low61 °F (Jul 15, 1:00 am)14% (Jul 10, 3:00 pm)29.47 "Hg (Jul 12, 1:00 pm)
Average77 °F52%29.74 "Hg
* Reported Jul 4 10:00 pm — Jul 19 10:30 pm, Astrakhan. Weather by CustomWeather, © 2019

Note: Actual official high and low records may vary slightly from our data, if they occured in-between our weather recording intervals... More about our weather records

Advertising

Astrakhan Weather History for the Previous 24 Hours

Scroll right to see more
 ConditionsComfort  
Time TempWeatherWind HumidityBarometerVisibility
10:30 pm
Fri, Jul 19
84 °FClear.6 mph35%29.89 "Hg10 mi
10:00 pm84 °FClear.6 mph33%29.89 "Hg10 mi
9:30 pm86 °FSunny.3 mph31%29.89 "Hg10 mi
9:00 pm86 °FSunny.3 mph31%29.86 "Hg10 mi
8:30 pm86 °FSunny.3 mph31%29.86 "Hg10 mi
8:00 pm88 °FSunny.6 mph31%29.86 "Hg10 mi
7:30 pm91 °FSunny.6 mph26%29.86 "Hg10 mi
7:00 pm91 °FSunny.6 mph21%29.83 "Hg10 mi
6:30 pm91 °FPassing clouds.6 mph23%29.83 "HgN/A
6:00 pm93 °FPassing clouds.8 mph21%29.83 "HgN/A
5:30 pm93 °FPassing clouds.6 mph21%29.83 "HgN/A
5:00 pm93 °FPassing clouds.8 mph21%29.83 "HgN/A
4:30 pm93 °FPassing clouds.8 mph21%29.83 "HgN/A
4:00 pm93 °FPassing clouds.10 mph21%29.83 "HgN/A
3:30 pm93 °FPassing clouds.10 mph23%29.83 "HgN/A
3:00 pm93 °FPassing clouds.10 mph20%29.83 "HgN/A
2:30 pm91 °FPassing clouds.10 mph23%29.83 "HgN/A
2:00 pm91 °FPassing clouds.10 mph23%29.83 "HgN/A
1:30 pm91 °FPassing clouds.10 mph23%29.83 "HgN/A
1:00 pm91 °FPassing clouds.8 mph24%29.83 "HgN/A
12:30 pm90 °FPassing clouds.10 mph27%29.83 "HgN/A
12:00 pm90 °FSunny.8 mph29%29.83 "Hg10 mi
11:30 am88 °FPassing clouds.3 mph33%29.83 "HgN/A
11:00 am86 °FPassing clouds.6 mph35%29.83 "HgN/A
10:30 am86 °FPassing clouds.8 mph35%29.83 "HgN/A
10:00 am84 °FPassing clouds.6 mph37%29.83 "HgN/A
9:30 am82 °FPassing clouds.6 mph40%29.83 "HgN/A
9:00 am81 °FSunny.6 mph39%29.83 "Hg10 mi
8:30 am79 °FPartly sunny.6 mph42%29.83 "HgN/A
8:00 am77 °FPartly sunny.6 mph44%29.80 "HgN/A
7:30 am75 °FPartly sunny.8 mph50%29.80 "HgN/A
7:00 am75 °FPartly sunny.6 mph47%29.80 "HgN/A
6:30 am75 °FPartly sunny.6 mph47%29.80 "HgN/A
6:00 am73 °FPassing clouds.6 mph50%29.80 "HgN/A
5:30 am75 °FPassing clouds.3 mph47%29.80 "HgN/A
5:00 am77 °FPassing clouds.6 mph39%29.77 "HgN/A
4:30 am77 °FClear.8 mph39%29.74 "Hg10 mi
4:00 am77 °FPassing clouds.6 mph39%29.74 "HgN/A
3:30 am77 °FPassing clouds.6 mph42%29.74 "HgN/A
3:00 am77 °FPassing clouds.3 mph42%29.74 "HgN/A
2:30 am79 °FClear.6 mph39%29.74 "Hg10 mi
2:00 am79 °FClear.3 mph37%29.74 "Hg10 mi
1:30 am79 °FClear.6 mph37%29.74 "Hg10 mi
1:00 am79 °FClear.6 mph39%29.74 "Hg10 mi
12:30 am79 °FClear.6 mph34%29.74 "Hg10 mi
12:00 am79 °FClear.6 mph34%29.74 "Hg10 mi
11:30 pm
Thu, Jul 18
81 °FClear.6 mph32%29.74 "Hg10 mi
11:00 pm82 °FClear.6 mph28%29.74 "Hg10 mi
Weather by CustomWeather, © 2019

See weather overview